Volver al catálogo

SL-6 R/B(2)

ActivoHEO
NORAD 22744·ROCKET BODY·🇷🇺 Russia

Lanzado Aug 10, 1993 desde Plesetsk Cosmodrome

Loading…

Próximos Pases (próximas 24 horas)

TLE

ActualizadoSource: Space-Track

Época: Sep 13, 2026, 04:50 UTC

1 22744U 93051D   26256.20199186  .00000231  00000-0  00000+0 0  9999
2 22744  67.9580 289.9965 6221610  68.1982 344.9026  2.05611894247047

Sigue SL-6 R/B(2) en tiempo real con AllMySat

Download on the App Store